STARLINK-37644, 69042

Orbit data source: Space-Track

STARLINK-37644, 69042 is a payload satellite owned by SpaceX/Seattle (US) in SSO that was launched on Wed, 06 May 2026 UTC via an FALCON 9 launch vehicle from the Air Force Western Test Range (AFWTR). Payload-class satellites include a variety of spacecraft equipped with specific instruments for various scientific and technological missions. These include communications satellites like Starlink; space stations such as the ISS; scientific satellites like the Hubble; Earth observation satellites from companies like Planet Labs, Umbra, and HawkEye 360; GPS; miniature CubeSats for education and research; and military/defense satellites.

Loading next visibility...
Identifier
69042, 2026-101T
Orbit
SSO
Country
Flag of USUS
Related business
Manufacturer
SpaceX/Seattle
Mission
Operational spacecraft
Bus & Motor
STARLINK V2MO, Unknown motor
Mass
575 kg wet, ~530 kg dry
Launch date (UTC)
2026-05-06 (1 month ago)
Launch vehicle
FALCON 9
Launch site
Air Force Western Test Range (AFWTR)
Object type
Payload
Rocket body
Debris
Shape & HBR
Unknown
Radar Cross Section
Large (>1 m²)

Expand to show TLE details & history
Last TLE update: 1 week ago

TLE from 1 week ago
0 STARLINK-37644
1 69042U 26101T   26155.17733098  .00053924  00000-0  98667-3 0  9990
2 69042  97.2853  10.1303 0001387  96.6943 263.4466 15.49180261  4575
Epoch: 2026-06-04T04:15Z
TLE epoch observation values (Epoch: 2026-06-04T04:15:21.396Z)
Latitude
-0.00005°
Longitude
53.66582°
Altitude
422.364 km
Speed
7.658 km/s
True Right ascension
00h 40m 31s
True Declination
0° 00' 00"
Sunlit
Object was in daylight at epoch
Visualization orbit readout
Latitude
Unknown
Longitude
Unknown
Altitude
Unknown
Speed
Unknown
Apparent Right ascension
Unknown
Apparent Declination
Unknown
Sunlit
N/A
Visualization observer readout
Local Sidereal Time
02:38:14
Azimuth
Unknown
Elevation
Unknown
Doppler factor
Unknown
Orbital elements
Apogee altitude
416.987 km
Perigee altitude
415.102 km
Semi-major axis
6,794.182 km
Eccentricity
0.00014
Inclination
97.2853°
RAAN
10.1303°
Arg. of periapsis
96.6943°
True anomaly
263.43081°
Mean anomaly
263.4466°
Eccentric anomaly
263.43871°
Mean motion
3.87559 °/min
Orbital period
92.89 mins
BSTAR
0.00098667
Loading maneuver chart data...
Computing Atmospheric mass density...
Loading historical data...
Loading historical data...
Loading historical data...
Loading historical data...
Loading historical data...
Loading historical data...
Loading historical data...

Documentation

Showing up to 5 results
|